Back to catalog

VANGUARD R/B

AliveUNKNOWN
NORAD 16·ROCKET BODY·🇺🇸 United States

Launched Mar 17, 1958 from Cape Canaveral Space Force Station

Loading…

Next Passes (next 24 hours)

TLE

FreshSource: Space-Track

Epoch: Sep 7, 2026, 05:00 UTC

1 00016U 58002A   26250.20891237  .00000161  00000-0  25152-3 0  9995
2 00016  34.2604  67.9426 2016222 106.8894 276.1435 10.49619832697534

Track VANGUARD R/B in real time with AllMySat

Download on the App Store